CDT,Max TemperatureF,Mean TemperatureF,Min TemperatureF,Max Dew PointF,MeanDew PointF,Min DewpointF,Max Humidity, Mean Humidity, Min Humidity, Max Sea Level PressureIn, Mean Sea Level PressureIn, Min Sea Level PressureIn, Max VisibilityMiles, Mean VisibilityMiles, Min VisibilityMiles, Max Wind SpeedMPH, Mean Wind SpeedMPH, Max Gust SpeedMPH,PrecipitationIn, CloudCover, Events, WindDirDegrees
2013-3-1,30,27,24,30,26,21,100,92,86,30.17,30.10,30.03,10,6,2,20,11,23,0.00,8,Snow,349
2013-3-2,33,27,21,21,19,16,86,74,55,30.20,30.18,30.15,10,10,7,20,14,24,0.00,4,Snow,337
2013-3-3,35,26,17,23,18,16,100,71,44,30.18,30.12,30.06,10,10,7,7,2,,0.00,2,,168
2013-3-4,37,32,28,28,25,21,86,73,65,30.07,29.94,29.83,10,10,3,18,10,23,0.00,7,Snow,107
2013-3-5,35,32,28,32,27,21,100,82,69,30.02,29.87,29.79,10,7,0,28,13,37,0.05,8,Rain-Snow,314
2013-3-6,30,28,26,25,23,21,86,79,74,30.34,30.26,30.03,10,10,10,24,16,31,0.00,8,,324
2013-3-7,37,32,26,28,24,19,93,78,65,30.42,30.37,30.33,10,10,7,9,2,,0.00,6,,124
2013-3-8,48,37,26,34,29,25,100,75,57,30.44,30.36,30.21,10,10,7,14,7,20,0.00,1,Rain,120
2013-3-9,55,46,37,43,35,28,81,68,54,30.21,30.01,29.80,10,10,7,22,13,34,0.06,3,Rain-Thunderstorm,140
2013-3-10,59,52,46,52,45,37,100,83,58,29.80,29.72,29.63,10,10,5,21,13,29,0.39,7,Rain-Thunderstorm,169
2013-3-11,48,40,32,46,32,27,100,88,75,29.94,29.76,29.65,10,9,4,21,14,28,0.00,8,,254
2013-3-12,42,34,26,34,25,21,86,73,57,30.15,30.03,29.93,10,10,4,24,13,32,0.00,5,Rain-Snow,273
2013-3-13,37,30,24,21,19,16,80,66,44,30.38,30.30,30.15,10,10,2,22,14,31,0.00,3,Snow,294
2013-3-14,44,32,21,30,25,19,100,75,53,30.38,30.24,30.10,10,10,10,18,6,30,0.00,2,,166
2013-3-15,60,44,28,45,37,27,100,76,48,30.11,29.87,29.64,10,10,7,17,6,22,0.00,0,,163
2013-3-16,53,43,33,45,35,28,100,84,70,30.06,29.88,29.61,10,7,0,24,10,29,0.00,5,Fog-Thunderstorm,354
2013-3-17,37,34,30,32,27,25,100,80,65,30.12,30.02,29.82,10,9,3,18,11,25,0.16,5,Rain-Snow-Thunderstorm,65
2013-3-18,44,37,30,36,32,19,100,86,53,29.97,29.76,29.66,10,7,2,22,12,31,0.03,6,Rain,305
2013-3-19,42,33,24,23,18,16,69,57,36,30.17,30.10,29.96,10,10,10,22,14,29,0.00,0,,272
2013-3-20,32,26,21,21,13,9,74,57,40,30.22,30.14,30.09,10,10,10,23,13,32,0.00,1,,299
2013-3-21,35,25,15,18,12,9,79,60,38,30.11,30.06,29.99,10,10,10,10,6,,0.00,0,,345
2013-3-22,41,30,19,27,18,14,93,63,36,30.06,30.03,29.99,10,10,10,9,2,,0.00,3,,149
2013-3-23,51,40,30,28,24,18,81,53,30,30.06,29.98,29.87,10,10,10,21,5,25,0.00,5,,53
2013-3-24,37,32,28,30,28,25,100,93,60,29.91,29.68,29.52,10,3,0,26,17,36,0.00,7,Snow-Thunderstorm,11
2013-3-25,35,30,26,28,26,23,100,83,65,30.13,29.91,29.71,10,8,2,24,15,25,0.08,8,Snow,306
2013-3-26,39,34,28,25,24,21,86,72,49,30.32,30.24,30.14,10,10,10,18,10,20,0.02,6,,283
2013-3-27,44,34,23,25,21,19,86,63,37,30.38,30.34,30.31,10,10,10,9,5,,0.00,2,,260
2013-3-28,48,34,19,30,24,19,100,67,39,30.38,30.33,30.28,10,10,7,10,2,,0.00,0,,111
2013-3-29,57,45,33,36,32,28,81,63,38,30.28,30.24,30.20,10,10,10,10,7,9,0.00,2,,95
2013-3-30,53,43,33,45,39,30,100,81,58,30.22,30.07,29.90,10,9,5,17,7,22,0.00,2,Rain,161
2013-3-31,60,51,39,48,43,30,100,79,53,29.94,29.86,29.82,10,7,2,16,7,21,0.02,4,Rain,275